Content
SEND FEEDBACK

Daily
Averages
Monthly
Summary
United States of America

LOWER ECHO LAKE, CALIFORNIA


Home > North America > United States > California
Elevation: 6350 feet     Latitude: 38 51N     Longitude: 120 01W

WEATHER
 
SELECT A DAY
Number of Records: 174,493;   Date Range: 1/1/95 - 8/12/14
 
SHARE

PRINT THIS DATA

[ ← Previous Day ]
WEATHER ALMANAC - MARCH 1, 2013
[ Next Day → ]
[ °C ]   °F
Weather ElementAverageHighLow
Temperature39.6 °F55 °F (3:53 pm)25 °F (6:53 am)
Dewpoint26.6 °F33.1 °F (11:53 am)21 °F (6:53 am)
Humidity62.7 %85 % (2:53 am)34 % (3:53 pm)
Barometer30.44 in30.54 in (7:53 am)30.36 in (2:53 pm)
Wind Speed2.6 mph10.4 mph (11:53 am)
Weather ElementAverage
Visibility10 mi
Wind DirectionNNE (35 °)

Weather ElementTotal
Precipitation---
Heating Degree Days25 (Base 65)
Averaged from 20 records on March 1, 2013
WEATHER CONDITIONS BREAKOUT
WIND DIRECTION BREAKOUT
WEATHER BY HOUR - MARCH 1, 2013
[ °C ]   °F
Local TimeTemperatureDewpointHumidityBarometerVisibilityWind DirectionWind SpeedGust SpeedPrecipitationEventsConditions
2:53 AM27.0 °F23.0 °F85 %30.48 in10.0 miCalmClear
4:53 AM26.1 °F21.9 °F84 %30.50 in10.0 miCalmClear
6:53 AM25.0 °F21.0 °F85 %30.53 in10.0 miSouth (170°)3.5 mphClear
7:53 AM27.0 °F23.0 °F85 %30.54 in10.0 miCalmClear
8:53 AM35.1 °F26.1 °F70 %30.51 in10.0 miSouth (180°)3.5 mphClear
9:53 AM45.0 °F28.0 °F52 %30.47 inCalmClear
10:53 AM50.0 °F28.0 °F43 %30.44 in10.0 miNNE (30°)5.8 mphClear
11:53 AM50.0 °F33.1 °F52 %30.43 in10.0 miNNE (30°)10.4 mphClear
12:53 PM51.1 °F30.9 °F46 %30.41 in10.0 miNNE (30°)9.2 mphClear
1:53 PM54.0 °F28.9 °F38 %30.37 in10.0 miVariable3.5 mphClear
2:53 PM54.0 °F28.9 °F38 %30.36 in10.0 miNE (40°)8.1 mphClear
3:53 PM55.0 °F27.0 °F34 %30.36 in10.0 miNE (40°)3.5 mphClear
4:53 PM46.9 °F28.0 °F48 %30.38 in10.0 miCalmClear
5:53 PM43.0 °F28.0 °F56 %30.41 in10.0 miCalmClear
6:53 PM39.0 °F27.0 °F62 %30.43 in10.0 miCalmClear
7:53 PM36.0 °F26.1 °F67 %30.45 in10.0 miCalmClear
8:53 PM34.0 °F26.1 °F73 %30.43 in10.0 miCalmClear
9:53 PM33.1 °F26.1 °F75 %30.42 in10.0 miSouth (180°)3.5 mphClear
10:53 PM30.9 °F25.0 °F79 %30.40 in10.0 miCalmClear
11:53 PM30.0 °F25.0 °F82 %30.39 in10.0 miCalmClear
Hourly data recorded from KTVL, located miles away from Lower Echo Lake, California







STORIES FROM OUR PARTNERS